Find Starlink 37681

NORAD ID: 100425 Int'l Des: 2026-192 Owner: SPXS Country: US Constellation: starlink operational

現在のビュー

3D地球を読み込み中...

About Starlink 37681

Starlink 37681 (NORAD 100425) is a starlink constellation satellite launched Aug 21, 2026 by SPXS of US. with a mass of 575.00 kg.

次回通過

Passes for default location (London). Set your location on the main map for personalized predictions.

高度履歴

Loading altitude history...

軌道要素

1 A0425U 26192X 26249.60804816 .00217522 00000-0 11277-2 0 9996
2 A0425 53.1593 14.0904 0000829 85.0149 275.0968 15.79888461 3730
Epoch: Sep 6, 2026 • Age: 7 hours

現在のステータス

高度 331.2 km
遠地点 / 近地点 N/A
速度 7.71 km/s
衛星直下点 24.99°N, 132.96°W
打ち上げ日 Aug 21, 2026
運用期間 16 days
タイプ internet

技術仕様

分類 Payload
質量 575.00 kg
乾燥質量 530.00 kg
総質量 575.00 kg
長さ 0.30 m
直径 4.10 m
スパン 29.00 m
形状 Box + pan
製造者 SPXS
バスタイプ Starlink V2MO
フェーズステータス In Orbit
所有者/国 SPXS/US

Most Searched